Location: Poughquag
(41.6090°N, 73.6820°W)
Time: 03:40:31
(UTC-04:00)

S-56A Canister/Altair - Pass Details

Date: 31 May 2020
Orbit: 633 x 2499 km, 38.9° (Epoch: 06 July)

Event Time Altitude Azimuth Distance (km) Brightness Sun altitude
Rises 05:10:08 0° 230° (SW) 3,225 - -2.9°
Exits shadow 05:10:48 - 228° (SW) 2,979 9.9 -2.8°
Reaches altitude 10° 05:12:20 10° 223° (SW) 2,446 9.5 -2.6°
Maximum altitude 05:17:46 44° 152° (SSE) 1,426 8.9 -1.7°
Drops below altitude 10° 05:25:41 10° 84° (E) 3,551 12.3 -0.4°
Sets 05:29:31 0° 79° (E) 4,855 13.3 0.2°
